Volver al catálogo

SIRIUS W

MARCOPOLO 1

ActivoComunicacionesGEO
NORAD 20193·PAYLOAD·🇸🇪 Sweden

Lanzado Aug 27, 1989 desde Cape Canaveral Space Force Station

Loading…

TLE

ActualizadoSource: Space-Track

Época: Sep 14, 2026, 13:39 UTC

1 20193U 89067A   26257.56902231 -.00000273  00000-0  00000-0 0  9998
2 20193  14.8473 359.6813 0003231  64.4142 296.7841  0.99189856 47710

Sigue SIRIUS W en tiempo real con AllMySat

Download on the App Store